When you browse on this site, cookies collect data to enhance your experience and personalize the content and advertising you see.
Visit our Privacy Policy to learn more. By continuing to use the site, you agree to this use of cookies and data.
  • In Germany
  • List of Countries
  • For 7 days
  • Water Temperature
  • Weather Map
  • Weather Widgets
  • user-avatar
    Login

    Hourly Weather Khulna

    Today, 24 October, Thursday

    Time Temperature Precipitation Wind Pressure Humidity
    00:00 +23°C° 0.3 mm 4 mps 757 mmHg 91%
    01:00 +23°C° 0.5 mm 4 mps 756 mmHg 92%
    02:00 +23°C° 0.5 mm 4 mps 756 mmHg 93%
    03:00 +23°C° 0.5 mm 4 mps 756 mmHg 94%
    04:00 +23°C° 0.9 mm 4 mps 756 mmHg 94%
    05:00 +22°C° 0.9 mm 4 mps 757 mmHg 93%
    06:00 +22°C° 0.9 mm 4 mps 757 mmHg 93%
    07:00 +22°C° 1.7 mm 4 mps 758 mmHg 93%
    08:00 +22°C° 1.7 mm 4 mps 758 mmHg 93%
    09:00 +21°C° 1.7 mm 5 mps 759 mmHg 94%
    10:00 +21°C° 0.9 mm 4 mps 759 mmHg 94%
    11:00 +21°C° 0.9 mm 4 mps 758 mmHg 94%
    12:00 +21°C° 0.9 mm 3 mps 758 mmHg 94%
    13:00 +21°C° 1.8 mm 3 mps 758 mmHg 95%
    14:00 +21°C° 1.8 mm 3 mps 757 mmHg 95%
    15:00 +21°C° 1.8 mm 3 mps 757 mmHg 96%
    16:00 +21°C° 1.3 mm 3 mps 757 mmHg 96%
    17:00 +21°C° 1.3 mm 3 mps 757 mmHg 96%
    18:00 +21°C° 1.3 mm 3 mps 757 mmHg 97%
    19:00 +21°C° 0.5 mm 3 mps 757 mmHg 96%
    20:00 +22°C° 0.5 mm 3 mps 758 mmHg 96%
    21:00 +23°C° 0.5 mm 2 mps 758 mmHg 96%
    22:00 +23°C° 0.3 mm 2 mps 758 mmHg 97%
    23:00 +23°C° 0.3 mm 2 mps 758 mmHg 97%

    Tomorrow, 25 October, Friday

    Time Temperature Precipitation Wind Pressure Humidity
    00:00 +23°C° 0.3 mm 2 mps 758 mmHg 97%
    01:00 +22°C° 1.2 mm 3 mps 757 mmHg 97%
    02:00 +22°C° 1.2 mm 3 mps 757 mmHg 97%
    03:00 +22°C° 1.2 mm 3 mps 757 mmHg 97%
    04:00 +22°C° 0.5 mm 3 mps 757 mmHg 97%
    05:00 +22°C° 0.5 mm 3 mps 757 mmHg 97%
    06:00 +22°C° 0.5 mm 3 mps 757 mmHg 96%
    07:00 +22°C° 0.1 mm 3 mps 757 mmHg 95%
    08:00 +22°C° 0.1 mm 3 mps 758 mmHg 94%
    09:00 +24°C° 0.1 mm 3 mps 758 mmHg 93%
    10:00 +25°C° 0 mm 4 mps 758 mmHg 88%
    11:00 +27°C° 0 mm 4 mps 758 mmHg 84%
    12:00 +28°C° 0 mm 4 mps 757 mmHg 79%
    13:00 +28°C° 0.1 mm 4 mps 757 mmHg 80%
    14:00 +27°C° 0.1 mm 4 mps 756 mmHg 81%
    15:00 +27°C° 0.1 mm 4 mps 756 mmHg 83%
    16:00 +26°C° 0.4 mm 4 mps 756 mmHg 86%
    17:00 +25°C° 0.4 mm 5 mps 756 mmHg 89%
    18:00 +23°C° 0.4 mm 5 mps 756 mmHg 93%
    19:00 +23°C° 0.3 mm 5 mps 757 mmHg 92%
    20:00 +22°C° 0.3 mm 4 mps 757 mmHg 92%
    21:00 +22°C° 0.3 mm 4 mps 758 mmHg 92%
    22:00 +22°C° 0.1 mm 4 mps 758 mmHg 92%
    23:00 +21°C° 0.1 mm 4 mps 758 mmHg 92%

    Day after tomorrow, 26 October, Saturday

    Time Temperature Precipitation Wind Pressure Humidity
    00:00 +21°C° 0.1 mm 3 mps 758 mmHg 93%
    01:00 +21°C° 0.1 mm 3 mps 758 mmHg 93%
    02:00 +21°C° 0.1 mm 3 mps 757 mmHg 93%
    03:00 +20°C° 0.1 mm 3 mps 757 mmHg 93%
    04:00 +20°C° 0.2 mm 3 mps 758 mmHg 94%
    05:00 +20°C° 0.2 mm 3 mps 758 mmHg 94%
    06:00 +20°C° 0.2 mm 3 mps 758 mmHg 95%
    07:00 +21°C° 0.4 mm 3 mps 759 mmHg 93%
    08:00 +23°C° 0.4 mm 2 mps 759 mmHg 91%
    09:00 +24°C° 0.4 mm 2 mps 760 mmHg 89%
    10:00 +25°C° 0.3 mm 2 mps 760 mmHg 88%
    11:00 +26°C° 0.3 mm 2 mps 759 mmHg 86%
    12:00 +27°C° 0.3 mm 2 mps 759 mmHg 84%
    13:00 +26°C° 0.5 mm 2 mps 758 mmHg 86%
    14:00 +26°C° 0.5 mm 3 mps 758 mmHg 87%
    15:00 +26°C° 0.5 mm 3 mps 757 mmHg 89%
    16:00 +25°C° 0 mm 2 mps 757 mmHg 90%
    17:00 +25°C° 0 mm 2 mps 757 mmHg 91%
    18:00 +25°C° 0 mm 1 mps 757 mmHg 92%
    19:00 +24°C° 0 mm 2 mps 758 mmHg 93%
    20:00 +24°C° 0 mm 2 mps 758 mmHg 94%
    21:00 +24°C° 0 mm 2 mps 758 mmHg 95%
    22:00 +23°C° 0 mm 2 mps 758 mmHg 95%
    23:00 +23°C° 0 mm 2 mps 758 mmHg 95%

    27 October, Sunday

    Time Temperature Precipitation Wind Pressure Humidity
    00:00 +23°C° 0 mm 1 mps 758 mmHg 95%
    01:00 +23°C° 0 mm 1 mps 758 mmHg 95%
    02:00 +23°C° 0 mm 2 mps 758 mmHg 95%
    03:00 +23°C° 0 mm 2 mps 758 mmHg 95%
    04:00 +21°C° 0.2 mm 2 mps 758 mmHg 96%
    05:00 +21°C° 0.2 mm 2 mps 758 mmHg 96%
    06:00 +21°C° 0.2 mm 2 mps 758 mmHg 97%
    07:00 +24°C° 0 mm 2 mps 759 mmHg 92%
    08:00 +25°C° 0 mm 2 mps 759 mmHg 87%
    09:00 +27°C° 0 mm 2 mps 760 mmHg 83%
    10:00 +28°C° 0 mm 3 mps 759 mmHg 79%
    11:00 +29°C° 0 mm 3 mps 759 mmHg 75%
    12:00 +30°C° 0 mm 3 mps 758 mmHg 72%
    13:00 +30°C° 0 mm 3 mps 758 mmHg 72%
    14:00 +30°C° 0 mm 3 mps 757 mmHg 71%
    15:00 +30°C° 0 mm 3 mps 757 mmHg 71%
    16:00 +29°C° 0 mm 3 mps 757 mmHg 75%
    17:00 +27°C° 0 mm 2 mps 757 mmHg 79%
    18:00 +26°C° 0 mm 2 mps 757 mmHg 84%
    19:00 +26°C° 0 mm 2 mps 757 mmHg 84%
    20:00 +25°C° 0 mm 2 mps 757 mmHg 84%
    21:00 +25°C° 0 mm 1 mps 758 mmHg 85%
    22:00 +25°C° 0 mm 1 mps 758 mmHg 86%
    23:00 +24°C° 0 mm 1 mps 758 mmHg 87%

    28 October, Monday

    Time Temperature Precipitation Wind Pressure Humidity
    00:00 +24°C° 0 mm 1 mps 758 mmHg 88%
    01:00 +24°C° 0 mm 1 mps 757 mmHg 89%
    02:00 +24°C° 0 mm 1 mps 757 mmHg 90%
    03:00 +24°C° 0 mm 2 mps 757 mmHg 91%
    04:00 +23°C° 0 mm 2 mps 757 mmHg 92%
    05:00 +23°C° 0 mm 2 mps 758 mmHg 93%
    06:00 +23°C° 0 mm 2 mps 758 mmHg 93%
    07:00 +24°C° 0 mm 2 mps 758 mmHg 88%
    08:00 +26°C° 0 mm 2 mps 759 mmHg 82%
    09:00 +27°C° 0 mm 3 mps 760 mmHg 77%
    10:00 +28°C° 0 mm 3 mps 759 mmHg 72%
    11:00 +29°C° 0 mm 3 mps 759 mmHg 67%
    12:00 +30°C° 0 mm 3 mps 758 mmHg 62%
    13:00 +30°C° 0 mm 3 mps 758 mmHg 62%
    14:00 +30°C° 0 mm 3 mps 757 mmHg 62%
    15:00 +30°C° 0 mm 3 mps 756 mmHg 62%
    16:00 +29°C° 0 mm 2 mps 756 mmHg 67%
    17:00 +27°C° 0 mm 2 mps 756 mmHg 72%
    18:00 +26°C° 0 mm 2 mps 756 mmHg 77%
    19:00 +26°C° 0 mm 2 mps 757 mmHg 78%
    20:00 +25°C° 0 mm 2 mps 757 mmHg 79%
    21:00 +25°C° 0 mm 2 mps 758 mmHg 80%
    22:00 +24°C° 0 mm 2 mps 758 mmHg 81%
    23:00 +24°C° 0 mm 2 mps 758 mmHg 81%

    29 October, Tuesday

    Time Temperature Precipitation Wind Pressure Humidity
    00:00 +24°C° 0 mm 2 mps 758 mmHg 82%
    01:00 +24°C° 0 mm 2 mps 758 mmHg 83%
    02:00 +23°C° 0 mm 2 mps 757 mmHg 84%
    03:00 +23°C° 0 mm 2 mps 757 mmHg 85%
    04:00 +23°C° 0 mm 2 mps 757 mmHg 87%
    05:00 +23°C° 0 mm 2 mps 758 mmHg 88%
    06:00 +23°C° 0 mm 2 mps 758 mmHg 89%
    07:00 +24°C° 0 mm 2 mps 758 mmHg 83%
    08:00 +26°C° 0 mm 2 mps 759 mmHg 78%
    09:00 +28°C° 0 mm 3 mps 759 mmHg 73%
    10:00 +29°C° 0 mm 3 mps 759 mmHg 68%
    11:00 +30°C° 0 mm 3 mps 758 mmHg 62%
    12:00 +31°C° 0 mm 3 mps 758 mmHg 57%
    13:00 +31°C° 0 mm 3 mps 757 mmHg 57%
    14:00 +31°C° 0 mm 3 mps 757 mmHg 57%
    15:00 +31°C° 0 mm 3 mps 756 mmHg 58%
    16:00 +30°C° 0 mm 2 mps 756 mmHg 63%
    17:00 +28°C° 0 mm 2 mps 756 mmHg 68%
    18:00 +26°C° 0 mm 2 mps 756 mmHg 73%
    19:00 +26°C° 0 mm 2 mps 757 mmHg 75%
    20:00 +25°C° 0 mm 2 mps 757 mmHg 77%
    21:00 +25°C° 0 mm 2 mps 757 mmHg 79%
    22:00 +25°C° 0 mm 2 mps 758 mmHg 78%
    23:00 +24°C° 0 mm 2 mps 758 mmHg 77%
    Show more